When you browse on this site, cookies collect data to enhance your experience and personalize the content and advertising you see.
Visit our Privacy Policy to learn more. By continuing to use the site, you agree to this use of cookies and data.
  • In Portugal
  • List of Countries
  • For 7 days
  • Water Temperature
  • Satellite Maps
  • Weather Map
  • Weather Widgets
  • user-avatar
    Login

    Hourly Weather Tibissa

    Today, 24 May, Friday

    Time Temperature Precipitation Wind Pressure Humidity
    00:00 +19°C° 0 mm 2 mps 686 mmHg 49%
    01:00 +19°C° 0 mm 2 mps 686 mmHg 50%
    02:00 +18°C° 0 mm 2 mps 686 mmHg 52%
    03:00 +18°C° 0 mm 2 mps 685 mmHg 54%
    04:00 +17°C° 0 mm 2 mps 685 mmHg 57%
    05:00 +18°C° 0 mm 3 mps 685 mmHg 56%
    06:00 +18°C° 0 mm 3 mps 685 mmHg 55%
    07:00 +19°C° 0 mm 4 mps 685 mmHg 54%
    08:00 +20°C° 0.1 mm 5 mps 685 mmHg 50%
    09:00 +22°C° 0.1 mm 7 mps 685 mmHg 46%
    10:00 +23°C° 0.1 mm 8 mps 686 mmHg 42%
    11:00 +24°C° 0.6 mm 8 mps 685 mmHg 41%
    12:00 +24°C° 0.6 mm 8 mps 685 mmHg 40%
    13:00 +26°C° 0.6 mm 8 mps 685 mmHg 40%
    14:00 +26°C° 0.1 mm 9 mps 684 mmHg 37%
    15:00 +27°C° 0.1 mm 9 mps 684 mmHg 35%
    16:00 +27°C° 0.1 mm 10 mps 683 mmHg 33%
    17:00 +26°C° 0 mm 9 mps 683 mmHg 35%
    18:00 +26°C° 0 mm 8 mps 683 mmHg 37%
    19:00 +24°C° 0 mm 8 mps 682 mmHg 39%
    20:00 +23°C° 2.3 mm 8 mps 683 mmHg 48%
    21:00 +21°C° 2.3 mm 9 mps 683 mmHg 57%
    22:00 +19°C° 2.3 mm 10 mps 683 mmHg 66%
    23:00 +18°C° 0.2 mm 9 mps 683 mmHg 67%

    Tomorrow, 25 May, Saturday

    Time Temperature Precipitation Wind Pressure Humidity
    00:00 +18°C° 0.2 mm 7 mps 682 mmHg 68%
    01:00 +19°C° 0.2 mm 5 mps 682 mmHg 70%
    02:00 +19°C° 0.9 mm 4 mps 682 mmHg 72%
    03:00 +19°C° 0.9 mm 3 mps 681 mmHg 73%
    04:00 +18°C° 0.9 mm 2 mps 681 mmHg 75%
    05:00 +18°C° 1.3 mm 2 mps 681 mmHg 76%
    06:00 +18°C° 1.3 mm 3 mps 681 mmHg 77%
    07:00 +18°C° 1.3 mm 3 mps 681 mmHg 77%
    08:00 +18°C° 2.8 mm 4 mps 681 mmHg 78%
    09:00 +17°C° 2.8 mm 4 mps 681 mmHg 79%
    10:00 +16°C° 2.8 mm 5 mps 681 mmHg 80%
    11:00 +17°C° 0.8 mm 4 mps 681 mmHg 79%
    12:00 +17°C° 0.8 mm 3 mps 681 mmHg 79%
    13:00 +17°C° 0.8 mm 2 mps 681 mmHg 78%
    14:00 +17°C° 0.6 mm 2 mps 681 mmHg 78%
    15:00 +17°C° 0.6 mm 3 mps 680 mmHg 77%
    16:00 +17°C° 0.6 mm 3 mps 680 mmHg 77%
    17:00 +16°C° 5 mm 3 mps 680 mmHg 81%
    18:00 +14°C° 5 mm 4 mps 679 mmHg 84%
    19:00 +14°C° 5 mm 4 mps 679 mmHg 88%
    20:00 +13°C° 2 mm 4 mps 680 mmHg 88%
    21:00 +13°C° 2 mm 5 mps 680 mmHg 88%
    22:00 +13°C° 2 mm 5 mps 680 mmHg 88%
    23:00 +13°C° 0.1 mm 5 mps 680 mmHg 88%

    Day after tomorrow, 26 May, Sunday

    Time Temperature Precipitation Wind Pressure Humidity
    00:00 +13°C° 0.1 mm 5 mps 680 mmHg 88%
    01:00 +13°C° 0.1 mm 6 mps 680 mmHg 87%
    02:00 +11°C° 0.1 mm 6 mps 679 mmHg 87%
    03:00 +11°C° 0.1 mm 7 mps 679 mmHg 87%
    04:00 +11°C° 0.1 mm 7 mps 679 mmHg 86%
    05:00 +11°C° 0 mm 7 mps 679 mmHg 85%
    06:00 +10°C° 0 mm 7 mps 679 mmHg 83%
    07:00 +10°C° 0 mm 7 mps 679 mmHg 81%
    08:00 +11°C° 0 mm 7 mps 679 mmHg 80%
    09:00 +12°C° 0 mm 8 mps 679 mmHg 78%
    10:00 +12°C° 0 mm 8 mps 680 mmHg 76%
    11:00 +13°C° 0.1 mm 8 mps 680 mmHg 72%
    12:00 +15°C° 0.1 mm 9 mps 680 mmHg 68%
    13:00 +16°C° 0.1 mm 9 mps 680 mmHg 64%
    14:00 +15°C° 0.1 mm 9 mps 680 mmHg 64%
    15:00 +14°C° 0.1 mm 10 mps 680 mmHg 65%
    16:00 +14°C° 0.1 mm 10 mps 680 mmHg 65%
    17:00 +13°C° 0 mm 10 mps 680 mmHg 68%
    18:00 +13°C° 0 mm 10 mps 680 mmHg 71%
    19:00 +13°C° 0 mm 10 mps 680 mmHg 74%
    20:00 +12°C° 0 mm 10 mps 680 mmHg 75%
    21:00 +12°C° 0 mm 10 mps 681 mmHg 77%
    22:00 +12°C° 0 mm 9 mps 681 mmHg 79%
    23:00 +12°C° 0 mm 10 mps 681 mmHg 80%

    27 May, Monday

    Time Temperature Precipitation Wind Pressure Humidity
    00:00 +11°C° 0 mm 10 mps 680 mmHg 81%
    01:00 +11°C° 0 mm 10 mps 680 mmHg 82%
    02:00 +11°C° 0 mm 10 mps 680 mmHg 82%
    03:00 +11°C° 0 mm 10 mps 680 mmHg 81%
    04:00 +11°C° 0 mm 10 mps 680 mmHg 81%
    05:00 +11°C° 0 mm 10 mps 680 mmHg 81%
    06:00 +9°C° 0 mm 10 mps 680 mmHg 81%
    07:00 +10°C° 0 mm 9 mps 680 mmHg 81%
    08:00 +11°C° 0 mm 9 mps 680 mmHg 78%
    09:00 +12°C° 0 mm 9 mps 681 mmHg 75%
    10:00 +13°C° 0 mm 9 mps 681 mmHg 73%
    11:00 +12°C° 0.1 mm 9 mps 681 mmHg 76%
    12:00 +12°C° 0.1 mm 9 mps 681 mmHg 78%
    13:00 +12°C° 0.1 mm 8 mps 681 mmHg 81%
    14:00 +13°C° 0 mm 9 mps 681 mmHg 75%
    15:00 +15°C° 0 mm 9 mps 682 mmHg 68%
    16:00 +17°C° 0 mm 10 mps 682 mmHg 62%
    17:00 +16°C° 0 mm 9 mps 682 mmHg 63%
    18:00 +16°C° 0 mm 9 mps 682 mmHg 64%
    19:00 +15°C° 0 mm 8 mps 682 mmHg 66%
    20:00 +15°C° 0 mm 7 mps 682 mmHg 70%
    21:00 +14°C° 0 mm 5 mps 683 mmHg 75%
    22:00 +13°C° 0 mm 4 mps 683 mmHg 79%
    23:00 +13°C° 0 mm 3 mps 683 mmHg 78%

    28 May, Tuesday

    Time Temperature Precipitation Wind Pressure Humidity
    00:00 +13°C° 0 mm 3 mps 683 mmHg 78%
    01:00 +13°C° 0 mm 3 mps 683 mmHg 77%
    02:00 +12°C° 0 mm 3 mps 683 mmHg 76%
    03:00 +12°C° 0 mm 3 mps 683 mmHg 76%
    04:00 +12°C° 0 mm 3 mps 682 mmHg 75%
    05:00 +14°C° 0 mm 2 mps 683 mmHg 71%
    06:00 +14°C° 0 mm 2 mps 683 mmHg 67%
    07:00 +15°C° 0 mm 2 mps 684 mmHg 63%
    08:00 +16°C° 0 mm 3 mps 684 mmHg 57%
    09:00 +18°C° 0 mm 3 mps 685 mmHg 51%
    10:00 +19°C° 0 mm 3 mps 685 mmHg 45%
    11:00 +21°C° 0 mm 4 mps 685 mmHg 41%
    12:00 +22°C° 0 mm 4 mps 685 mmHg 38%
    13:00 +23°C° 0 mm 5 mps 685 mmHg 34%
    14:00 +25°C° 0 mm 5 mps 685 mmHg 33%
    15:00 +26°C° 0 mm 4 mps 685 mmHg 32%
    16:00 +26°C° 0 mm 4 mps 684 mmHg 30%
    17:00 +26°C° 0 mm 4 mps 684 mmHg 32%
    18:00 +25°C° 0 mm 3 mps 684 mmHg 34%
    19:00 +25°C° 0 mm 3 mps 684 mmHg 36%
    20:00 +24°C° 0 mm 3 mps 684 mmHg 39%
    21:00 +22°C° 0 mm 3 mps 684 mmHg 42%
    22:00 +21°C° 0 mm 3 mps 684 mmHg 45%
    23:00 +20°C° 0 mm 4 mps 684 mmHg 45%

    29 May, Wednesday

    Time Temperature Precipitation Wind Pressure Humidity
    00:00 +20°C° 0 mm 4 mps 684 mmHg 46%
    01:00 +19°C° 0 mm 4 mps 684 mmHg 46%
    02:00 +19°C° 0 mm 5 mps 684 mmHg 48%
    03:00 +19°C° 0 mm 5 mps 683 mmHg 50%
    04:00 +17°C° 0 mm 6 mps 683 mmHg 52%
    05:00 +18°C° 0 mm 7 mps 683 mmHg 50%
    06:00 +18°C° 0 mm 7 mps 684 mmHg 48%
    07:00 +20°C° 0 mm 8 mps 684 mmHg 46%
    08:00 +22°C° 0 mm 9 mps 684 mmHg 41%
    09:00 +23°C° 0 mm 9 mps 685 mmHg 37%
    10:00 +26°C° 0 mm 10 mps 685 mmHg 32%
    11:00 +27°C° 0 mm 9 mps 685 mmHg 31%
    12:00 +28°C° 0 mm 9 mps 686 mmHg 29%
    13:00 +29°C° 0 mm 9 mps 686 mmHg 28%
    14:00 +28°C° 0.1 mm 8 mps 686 mmHg 33%
    15:00 +27°C° 0.1 mm 6 mps 686 mmHg 39%
    16:00 +26°C° 0.1 mm 5 mps 686 mmHg 44%
    17:00 +23°C° 0.1 mm 5 mps 686 mmHg 53%
    18:00 +22°C° 0.1 mm 5 mps 686 mmHg 62%
    19:00 +20°C° 0.1 mm 5 mps 686 mmHg 70%
    20:00 +19°C° 0.4 mm 4 mps 686 mmHg 75%
    21:00 +18°C° 0.4 mm 4 mps 687 mmHg 79%
    22:00 +17°C° 0.4 mm 4 mps 687 mmHg 84%
    23:00 +17°C° 0.3 mm 4 mps 687 mmHg 85%
    Show more